Wind_Speed
30 30 30 30 30 31 31 31 32 32 33 33 34 35 35 36 37 38 39 39 39 40 40 40 40 41 41 41 42 42 42 42 42 43 43 44 43 43 43 43 43 43 43
30 30 30 30 30 31 32 33 33 34 34 35 36 36 36 37 38 38 39 40 41 41 42 42 42 43 43 44 44 45 45 45 46 46 46 46 46 46 45 46 46 45 44
29 29 30 30 31 32 32 33 34 35 36 36 37 37 37 38 39 40 41 42 43 43 44 44 44 45 46 46 47 47 48 48 48 49 49 48 47 47 47 47 48 47 46
30 30 31 31 32 33 34 35 36 36 36 37 38 38 39 40 40 41 42 43 44 45 45 46 47 47 48 48 49 49 50 50 51 51 51 50 50 49 49 49 49 49 48
31 31 32 32 33 34 35 36 37 37 37 38 39 40 40 41 42 43 44 44 45 46 47 48 48 49 49 50 50 51 51 52 53 53 53 52 51 51 51 51 50 51 51
32 32 32 33 34 35 35 36 37 38 38 39 40 41 42 43 43 44 45 46 47 47 48 49 49 50 50 51 51 52 53 54 55 54 54 54 53 53 53 53 52 53 53
32 33 34 34 35 36 36 37 38 38 39 40 41 43 44 44 45 46 47 47 48 49 49 50 51 51 52 53 53 53 55 56 56 55 55 55 54 54 54 54 54 54 54
34 35 35 36 36 37 37 38 39 39 40 42 43 44 45 45 46 47 48 48 49 50 51 51 52 53 53 55 55 55 55 56 57 56 55 56 56 55 55 55 54 56 56
35 36 37 37 37 38 38 39 40 41 42 44 46 47 46 45 46 46 46 47 48 49 50 51 53 54 55 56 57 57 57 57 57 57 56 57 57 57 57 57 57 57 58
36 37 38 38 38 39 40 41 41 43 44 45 46 46 46 46 46 45 45 46 47 49 50 52 53 54 56 56 56 57 57 57 57 58 58 57 58 58 57 57 57 57 58
37 38 39 39 39 40 41 41 42 42 44 44 45 45 45 47 47 47 46 46 47 48 50 52 53 55 56 56 57 57 56 56 57 58 58 57 57 57 57 56 56 56 55
38 39 40 40 40 41 41 41 42 43 44 45 45 45 46 47 47 48 49 48 48 48 50 52 53 55 55 56 57 57 57 57 56 56 57 57 57 56 56 56 56 56 55
38 39 40 40 41 41 41 41 42 43 44 44 45 45 46 47 48 49 50 49 49 49 50 51 54 55 55 56 56 56 57 57 57 56 56 56 56 56 55 56 56 56 56
39 39 40 41 41 41 41 41 42 44 44 44 45 46 46 47 48 49 50 51 51 50 51 52 53 54 54 55 56 56 56 56 56 56 56 55 55 54 54 55 56 55 55
39 40 40 40 40 40 41 41 43 44 44 45 45 46 47 48 49 50 51 53 53 53 52 52 53 53 54 55 56 56 56 55 54 54 53 52 52 52 52 52 53 53 53
39 39 39 39 40 40 41 42 43 44 45 46 46 46 47 49 50 50 51 53 54 55 54 52 52 52 53 54 54 54 54 53 52 52 50 50 49 49 49 48 48 48 49
39 39 39 40 40 41 42 43 44 45 45 45 46 46 47 48 49 50 51 52 53 54 54 51 51 51 51 51 50 51 51 50 49 48 47 47 46 45 44 43 43 44 44
40 40 40 41 41 42 42 43 44 45 45 45 46 47 47 49 49 50 51 52 52 53 52 50 49 48 48 47 47 47 47 46 44 44 43 43 42 41 40 39 39 40 40
40 40 40 40 41 42 42 43 44 44 44 45 46 47 48 49 49 50 50 51 51 51 50 49 47 46 45 45 44 43 43 42 41 40 39 39 39 38 37 36 36 36 35
39 40 40 41 41 42 42 43 43 44 44 45 46 47 47 48 48 48 48 48 48 48 47 46 44 43 42 41 41 40 39 38 37 36 35 35 34 34 33 32 31 31 31
39 39 40 40 41 41 42 43 43 44 44 45 46 46 46 46 46 46 46 46 46 46 45 43 42 41 40 38 37 37 36 34 33 33 32 31 31 30 29 28 28 28 27
37 38 39 40 41 42 43 44 44 44 45 45 45 44 44 44 44 45 45 45 44 44 43 41 40 39 37 36 35 34 32 31 31 31 30 28 28 27 26 26 27 26 26
37 38 39 41 42 43 44 44 44 44 44 44 43 42 42 42 43 43 43 43 42 42 41 39 38 38 35 33 33 32 30 29 28 27 26 25 24 24 25 25 26 26 26
38 38 39 41 42 43 43 43 42 42 42 42 41 41 41 42 42 41 40 40 39 38 38 37 37 35 34 32 31 30 28 27 25 23 23 22 22 23 24 24 24 25 25
37 38 40 41 42 42 41 41 40 40 40 40 40 40 40 40 40 40 39 38 37 36 36 36 35 33 32 32 31 28 26 25 22 21 22 22 22 22 22 22 23 23 24
37 38 39 40 40 39 38 38 39 39 39 38 38 37 37 38 38 38 37 36 35 34 34 33 31 30 31 30 28 26 24 22 21 20 20 21 21 21 22 22 23 22 22
Wind_Direction
265 266 268 268 269 270 271 272 274 275 275 276 277 278 279 280 280 279 278 278 277 277 276 276 277 277 278 277 277 277 277 277 277 277 277 276 276 275 274 273 272 271 270
265 267 268 269 270 271 272 273 274 275 276 277 278 279 279 280 281 281 280 278 278 277 277 277 277 277 278 277 278 278 278 277 277 277 277 277 275 275 273 271 271 270 269
266 267 269 271 271 272 274 275 275 276 277 278 279 279 281 281 282 282 282 280 278 278 278 277 277 277 278 278 279 279 278 278 277 277 277 278 275 273 273 271 270 269 268
267 269 270 271 272 273 275 276 276 277 278 279 280 280 282 282 282 282 282 281 279 278 278 278 278 278 278 278 278 279 279 278 277 277 278 278 275 273 272 271 270 268 268
268 269 270 271 273 274 276 277 277 278 279 279 280 281 282 282 282 282 283 282 281 280 279 279 279 278 278 278 278 279 279 278 277 277 277 277 275 273 271 270 269 268 267
269 271 272 273 274 276 277 278 279 279 280 280 281 282 283 283 283 283 283 283 283 281 280 279 279 279 278 278 278 279 278 278 278 278 277 277 274 273 270 270 268 267 267
270 272 274 275 276 277 279 280 280 281 282 282 282 283 284 284 284 284 283 283 283 282 282 280 280 280 279 279 279 279 279 278 278 278 277 276 274 272 271 270 268 266 265
271 274 275 276 278 279 280 281 281 282 283 283 284 285 284 283 284 284 284 284 284 283 282 281 280 281 281 280 279 280 279 279 278 278 277 276 273 271 270 269 267 266 265
272 274 275 277 278 280 282 282 283 283 284 285 286 287 286 285 284 284 283 284 284 283 283 283 281 281 282 281 281 281 280 279 278 277 277 276 274 272 271 269 268 266 265
273 274 275 277 278 280 282 284 284 284 285 286 287 288 288 288 288 286 285 286 286 285 284 284 283 282 283 283 282 282 281 279 278 277 277 276 275 274 271 270 269 267 266
275 276 276 277 279 280 282 284 284 286 287 288 288 287 288 289 290 289 288 287 286 285 285 285 284 283 283 283 283 283 281 280 279 278 277 276 275 274 272 270 269 267 266
276 277 277 278 280 281 283 283 284 286 288 289 288 288 289 290 290 291 291 290 288 287 287 287 287 285 284 283 284 283 282 281 280 279 277 276 275 274 272 270 268 267 265
277 278 279 279 281 282 282 283 285 287 289 289 289 289 290 292 292 292 292 291 290 289 289 289 289 288 286 285 285 285 284 282 281 280 279 277 276 274 272 269 268 267 265
277 279 280 280 281 282 283 284 286 288 289 290 289 290 291 293 294 293 293 292 291 290 290 291 291 290 288 287 286 285 284 283 281 280 279 278 277 275 273 270 268 266 265
278 280 281 281 281 282 283 285 287 288 289 290 290 291 292 293 294 294 294 294 294 293 292 293 292 291 290 289 287 286 285 283 282 280 279 278 277 275 274 272 269 267 265
279 280 281 281 281 282 284 286 288 289 290 290 290 291 293 294 294 294 294 295 296 296 296 295 293 292 292 291 289 286 285 284 283 281 280 279 278 277 275 273 270 268 265
279 279 280 281 281 283 285 286 288 290 290 291 291 292 293 294 294 295 295 296 297 297 297 297 295 294 294 293 290 288 286 285 283 280 279 278 278 277 274 273 271 268 265
279 279 280 281 282 283 285 286 289 290 291 291 292 293 294 295 295 296 297 297 297 297 298 298 296 295 294 293 292 289 286 286 284 282 280 279 277 275 273 272 272 268 265
278 279 280 282 283 284 286 288 290 290 291 292 293 294 295 295 296 297 298 298 298 298 299 298 297 296 295 294 292 289 287 285 284 283 282 280 277 274 272 270 269 267 264
279 280 281 283 284 286 288 289 290 291 291 292 294 294 295 296 297 298 298 298 299 299 300 299 299 298 297 295 292 290 289 287 285 283 282 280 277 275 270 267 266 265 264
280 281 283 284 285 287 289 291 291 292 292 293 294 295 296 297 297 298 299 299 300 300 300 300 300 300 298 295 293 292 291 288 285 283 281 278 276 273 268 265 263 262 261
280 282 283 284 286 288 290 292 292 293 294 294 295 295 296 296 297 298 299 300 301 301 301 302 301 300 299 295 294 293 292 289 285 282 278 274 273 271 269 265 262 260 261
281 283 284 285 287 289 291 292 292 293 294 295 295 296 296 296 297 298 299 300 301 302 302 301 301 301 299 297 295 293 292 290 288 283 275 272 271 271 268 265 263 261 263
282 284 285 287 289 291 292 292 293 294 295 296 296 296 295 296 297 298 298 300 301 302 301 300 301 299 297 296 294 293 292 291 289 282 276 273 272 268 265 264 263 263 264
283 285 287 290 291 291 292 292 293 295 296 297 296 295 295 296 297 298 299 300 301 301 300 300 300 298 298 296 294 293 293 292 289 283 276 273 271 268 267 264 266 267 266
284 286 289 291 291 291 291 292 294 296 297 297 296 296 296 297 298 299 300 301 301 301 301 300 299 299 299 297 293 293 292 291 287 283 278 276 274 272 269 265 267 267 267
Height
5803 5803 5803 5803 5803 5803 5802 5802 5801 5801 5800 5799 5798 5797 5796 5795 5793 5792 5791 5790 5788 5787 5786 5785 5784 5783 5782 5780 5779 5778 5777 5776 5775 5774 5773 5772 5771 5771 5770 5770 5769 5769 5769
5796 5797 5797 5796 5796 5796 5795 5795 5794 5793 5792 5791 5790 5789 5788 5786 5785 5783 5782 5780 5779 5778 5777 5776 5775 5773 5772 5770 5769 5768 5767 5766 5765 5764 5763 5761 5761 5760 5759 5758 5758 5758 5759
5790 5790 5790 5790 5789 5788 5788 5787 5786 5785 5785 5783 5782 5781 5779 5778 5776 5774 5773 5771 5770 5768 5767 5766 5764 5763 5761 5760 5758 5757 5756 5755 5753 5752 5751 5750 5749 5748 5747 5747 5746 5746 5747
5783 5783 5783 5782 5782 5781 5780 5779 5778 5777 5776 5775 5774 5772 5770 5769 5767 5765 5763 5761 5759 5758 5756 5755 5753 5752 5750 5748 5746 5745 5744 5742 5741 5740 5739 5737 5736 5736 5735 5734 5734 5734 5734
5776 5776 5775 5775 5774 5773 5772 5771 5770 5769 5768 5766 5765 5763 5761 5759 5757 5755 5753 5751 5749 5747 5745 5743 5741 5739 5738 5736 5734 5732 5731 5729 5728 5726 5725 5724 5723 5722 5722 5720 5721 5721 5722
5768 5768 5768 5767 5766 5765 5764 5762 5761 5760 5758 5757 5755 5753 5751 5749 5747 5744 5742 5740 5737 5735 5732 5731 5729 5727 5725 5723 5721 5719 5717 5716 5714 5712 5711 5709 5708 5707 5707 5707 5707 5708 5708
5760 5760 5759 5759 5757 5756 5755 5753 5752 5750 5749 5747 5745 5743 5741 5738 5736 5733 5731 5728 5725 5723 5720 5718 5715 5713 5711 5709 5707 5705 5703 5701 5699 5697 5696 5694 5693 5692 5692 5692 5692 5692 5693
5752 5751 5751 5750 5748 5747 5745 5744 5742 5740 5738 5736 5734 5732 5730 5729 5725 5722 5719 5716 5713 5710 5707 5704 5702 5699 5697 5695 5693 5690 5688 5685 5684 5682 5680 5679 5677 5677 5676 5676 5676 5676 5678
5743 5742 5741 5740 5739 5737 5736 5734 5731 5729 5727 5725 5722 5719 5716 5714 5713 5711 5707 5704 5700 5697 5694 5691 5688 5685 5682 5680 5677 5675 5672 5670 5668 5666 5664 5662 5661 5659 5659 5659 5659 5659 5660
5734 5733 5732 5730 5729 5727 5726 5723 5721 5718 5716 5713 5710 5706 5703 5700 5697 5697 5696 5692 5688 5685 5681 5678 5674 5671 5667 5664 5662 5659 5656 5654 5652 5650 5648 5646 5644 5642 5641 5641 5641 5642 5643
5724 5723 5721 5720 5719 5717 5715 5713 5710 5708 5705 5702 5698 5695 5692 5688 5684 5682 5682 5680 5677 5673 5669 5664 5660 5657 5653 5649 5646 5643 5640 5637 5634 5633 5631 5629 5627 5625 5624 5624 5624 5625 5626
5714 5712 5711 5709 5708 5706 5704 5702 5700 5697 5694 5691 5687 5684 5680 5677 5673 5669 5667 5666 5664 5661 5657 5652 5647 5643 5638 5635 5631 5628 5624 5621 5618 5615 5614 5612 5610 5608 5607 5607 5607 5608 5610
5704 5702 5700 5698 5697 5695 5693 5691 5689 5686 5683 5680 5677 5673 5669 5665 5661 5657 5654 5651 5650 5649 5645 5640 5633 5628 5624 5619 5616 5612 5608 5605 5602 5599 5597 5595 5593 5592 5591 5591 5591 5592 5593
5693 5691 5689 5687 5686 5684 5683 5681 5678 5676 5673 5669 5666 5662 5659 5654 5650 5645 5641 5637 5636 5635 5632 5627 5621 5614 5609 5604 5600 5595 5592 5588 5585 5583 5580 5578 5577 5575 5574 5574 5574 5575 5577
5683 5681 5679 5677 5675 5674 5672 5670 5668 5665 5662 5658 5655 5651 5647 5643 5639 5634 5629 5624 5620 5617 5617 5614 5607 5601 5594 5589 5584 5579 5576 5572 5569 5567 5565 5563 5561 5559 5558 5558 5558 5559 5561
5672 5670 5668 5666 5665 5663 5661 5659 5657 5654 5651 5647 5644 5640 5636 5632 5627 5622 5617 5612 5605 5600 5598 5597 5592 5586 5580 5574 5568 5563 5560 5557 5554 5551 5549 5547 5546 5544 5543 5542 5542 5543 5545
5663 5660 5659 5657 5655 5653 5651 5649 5646 5643 5640 5636 5632 5629 5625 5620 5616 5611 5605 5600 5594 5587 5582 5581 5577 5571 5565 5560 5555 5550 5545 5542 5540 5537 5535 5533 5532 5530 5529 5529 5529 5530 5532
5653 5651 5648 5646 5645 5642 5640 5638 5635 5632 5629 5625 5622 5618 5614 5609 5604 5599 5594 5588 5582 5576 5569 5566 5564 5559 5553 5547 5542 5537 5533 5530 5527 5525 5522 5520 5519 5518 5517 5517 5518 5519 5520
5643 5641 5639 5637 5634 5632 5630 5627 5624 5621 5618 5614 5610 5606 5602 5597 5593 5587 5582 5576 5571 5565 5558 5553 5550 5546 5541 5535 5530 5526 5522 5519 5516 5513 5511 5510 5508 5507 5507 5507 5507 5508 5509
5633 5631 5629 5626 5624 5622 5619 5617 5614 5611 5607 5604 5599 5595 5590 5586 5581 5576 5571 5565 5560 5554 5548 5543 5538 5534 5530 5524 5519 5515 5512 5509 5506 5503 5501 5500 5498 5497 5497 5497 5499 5499 5500
5623 5621 5619 5616 5614 5611 5609 5606 5603 5600 5597 5593 5588 5584 5579 5574 5569 5564 5559 5555 5549 5544 5538 5533 5529 5524 5520 5515 5510 5506 5502 5499 5497 5494 5493 5491 5490 5489 5489 5490 5490 5492 5493
5613 5611 5609 5607 5604 5601 5598 5595 5592 5589 5585 5581 5577 5573 5568 5564 5559 5554 5549 5544 5539 5533 5528 5524 5519 5515 5511 5506 5502 5497 5494 5491 5489 5487 5484 5484 5483 5483 5483 5483 5484 5485 5487
5604 5602 5599 5597 5594 5591 5588 5584 5581 5577 5574 5570 5566 5562 5558 5554 5549 5545 5540 5535 5530 5524 5519 5514 5510 5506 5502 5498 5494 5490 5487 5483 5481 5479 5477 5477 5477 5476 5477 5477 5478 5480 5480
5594 5592 5589 5587 5584 5580 5577 5573 5570 5566 5563 5559 5555 5552 5548 5544 5539 5535 5531 5526 5521 5516 5511 5507 5502 5498 5494 5490 5486 5483 5480 5477 5474 5472 5471 5471 5471 5471 5472 5472 5472 5473 5474
5585 5582 5579 5576 5573 5570 5566 5562 5559 5556 5553 5550 5546 5542 5538 5534 5530 5525 5521 5517 5513 5508 5503 5499 5494 5490 5486 5482 5479 5476 5473 5470 5468 5467 5465 5465 5465 5465 5466 5466 5466 5466 5467
5575 5572 5569 5566 5562 5559 5555 5552 5549 5547 5544 5540 5537 5532 5528 5524 5520 5516 5512 5508 5505 5501 5496 5492 5487 5483 5480 5476 5472 5470 5467 5465 5463 5462 5460 5459 5459 5459 5460 5461 5460 5460 5461